User: anonymous   Login
Location: Unspecified
(0.0000°N, 0.0000°E)
Time: 12:52:08
(UTC+00:00)
Language:

USA 255 - Orbit

View from above orbital plane
View from above orbital plane
View from above satellite
View from above satellite

Ground track
Ground track

The orbit data is extracted from the following two-line orbital elements,

1 40101U 14043C   16199.39293062 0.00000000  00000-0  00000-0 0    01
2 40101   1.1285  69.5162 0010447 228.0346 131.8890  0.98910783    00
Epoch (UTC): 17 July 2016 09:25:49
Eccentricity: 0.0010447
inclination: 1.1285°
perigee height: 36127 km
apogee height: 36216 km
right ascension of ascending node: 69.5162°
argument of perigee: 228.0346°
revolutions per day: 0.98910783
mean anomaly at epoch: 131.8890°
orbit number at epoch: 0

The dashed part of the orbit path shows where the satellite is in the earth's shadow,  

DLR